iso_date,epoch_date,Year,Hour,Min,DOY,POS_DOY,Lat,Lon,BP,Ts,Ta,has_bp,has_ts,has_ta,BuoyID,Buoy_Type,Buoy_Owner,Logistics,Hemisphere
2020-10-30T22:00:02Z,1604095203,2020,22,0,304.9167,304.9167,50.759,-175.117,1006.3,8.86,-999.0,yes,yes,no,300534060317420,BD2GI,AOML,USCG_HEALY,North
2020-10-30T22:59:57Z,1604098797,2020,23,0,304.9583,304.9583,50.762,-175.123,1007.6,8.87,-999.0,yes,yes,no,300534060317420,BD2GI,AOML,USCG_HEALY,North
2020-10-31T00:00:00Z,1604102400,2020,0,0,305.0,305.0,50.763,-175.13,1008.4,8.84,-999.0,yes,yes,no,300534060317420,BD2GI,AOML,USCG_HEALY,North
2020-10-31T01:00:02Z,1604106003,2020,1,0,305.0417,305.0417,50.763,-175.13,1009.5,8.82,-999.0,yes,yes,no,300534060317420,BD2GI,AOML,USCG_HEALY,North
2020-10-31T01:59:57Z,1604109597,2020,2,0,305.0833,305.0833,50.761,-175.138,1010.9,8.8,-999.0,yes,yes,no,300534060317420,BD2GI,AOML,USCG_HEALY,North
2020-10-31T03:00:00Z,1604113200,2020,3,0,305.125,305.125,50.758,-175.144,1012.2,8.79,-999.0,yes,yes,no,300534060317420,BD2GI,AOML,USCG_HEALY,North
2020-10-31T04:00:02Z,1604116803,2020,4,0,305.1667,305.1667,50.758,-175.144,1013.5,8.79,-999.0,yes,yes,no,300534060317420,BD2GI,AOML,USCG_HEALY,North
2020-10-31T04:59:57Z,1604120397,2020,5,0,305.2083,305.2083,50.758,-175.144,1014.4,8.77,-999.0,yes,yes,no,300534060317420,BD2GI,AOML,USCG_HEALY,North
2020-10-31T06:00:00Z,1604124000,2020,6,0,305.25,305.25,50.752,-175.169,1015.5,8.77,-999.0,yes,yes,no,300534060317420,BD2GI,AOML,USCG_HEALY,North
2020-10-31T07:00:02Z,1604127603,2020,7,0,305.2917,305.2917,50.75,-175.173,1016.8,8.76,-999.0,yes,yes,no,300534060317420,BD2GI,AOML,USCG_HEALY,North
2020-10-31T07:59:57Z,1604131197,2020,8,0,305.3333,305.3333,50.748,-175.18,1017.5,8.77,-999.0,yes,yes,no,300534060317420,BD2GI,AOML,USCG_HEALY,North
2020-10-31T09:00:00Z,1604134800,2020,9,0,305.375,305.375,50.747,-175.188,1018.4,8.76,-999.0,yes,yes,no,300534060317420,BD2GI,AOML,USCG_HEALY,North
2020-10-31T10:00:02Z,1604138403,2020,10,0,305.4167,305.4167,50.747,-175.197,1018.6,8.76,-999.0,yes,yes,no,300534060317420,BD2GI,AOML,USCG_HEALY,North
2020-10-31T10:59:57Z,1604141997,2020,11,0,305.4583,305.4583,50.747,-175.197,1019.4,8.75,-999.0,yes,yes,no,300534060317420,BD2GI,AOML,USCG_HEALY,North
2020-10-31T12:00:00Z,1604145600,2020,12,0,305.5,305.5,50.747,-175.197,1020.6,8.75,-999.0,yes,yes,no,300534060317420,BD2GI,AOML,USCG_HEALY,North
2020-10-31T13:00:02Z,1604149203,2020,13,0,305.5417,305.5417,50.752,-175.221,1021.0,8.75,-999.0,yes,yes,no,300534060317420,BD2GI,AOML,USCG_HEALY,North
2020-10-31T13:59:57Z,1604152797,2020,14,0,305.5833,305.5833,50.754,-175.228,1019.6,8.75,-999.0,yes,yes,no,300534060317420,BD2GI,AOML,USCG_HEALY,North
2020-10-31T15:00:00Z,1604156400,2020,15,0,305.625,305.625,50.755,-175.239,1019.4,8.76,-999.0,yes,yes,no,300534060317420,BD2GI,AOML,USCG_HEALY,North
2020-10-31T16:00:02Z,1604160003,2020,16,0,305.6667,305.6667,50.759,-175.248,1020.7,8.75,-999.0,yes,yes,no,300534060317420,BD2GI,AOML,USCG_HEALY,North
2020-10-31T16:59:57Z,1604163597,2020,17,0,305.7083,305.7083,50.764,-175.253,1020.2,8.75,-999.0,yes,yes,no,300534060317420,BD2GI,AOML,USCG_HEALY,North
2020-10-31T18:00:00Z,1604167200,2020,18,0,305.75,305.75,50.768,-175.256,1020.3,8.74,-999.0,yes,yes,no,300534060317420,BD2GI,AOML,USCG_HEALY,North
2020-10-31T19:00:02Z,1604170803,2020,19,0,305.7917,305.7917,50.77,-175.253,1021.2,8.73,-999.0,yes,yes,no,300534060317420,BD2GI,AOML,USCG_HEALY,North
2020-10-31T19:59:57Z,1604174397,2020,20,0,305.8333,305.8333,50.769,-175.254,1021.2,8.74,-999.0,yes,yes,no,300534060317420,BD2GI,AOML,USCG_HEALY,North
2020-10-31T21:00:00Z,1604178000,2020,21,0,305.875,305.875,50.767,-175.254,1020.0,8.74,-999.0,yes,yes,no,300534060317420,BD2GI,AOML,USCG_HEALY,North
2020-10-31T22:00:02Z,1604181603,2020,22,0,305.9167,305.9167,50.765,-175.259,1019.8,8.75,-999.0,yes,yes,no,300534060317420,BD2GI,AOML,USCG_HEALY,North
2020-10-31T22:59:57Z,1604185197,2020,23,0,305.9583,305.9583,50.763,-175.266,1019.2,8.75,-999.0,yes,yes,no,300534060317420,BD2GI,AOML,USCG_HEALY,North
2020-11-01T00:00:00Z,1604188800,2020,0,0,306.0,306.0,50.761,-175.276,1018.4,8.75,-999.0,yes,yes,no,300534060317420,BD2GI,AOML,USCG_HEALY,North
2020-11-01T01:00:02Z,1604192403,2020,1,0,306.0417,306.0417,50.759,-175.288,1017.2,8.75,-999.0,yes,yes,no,300534060317420,BD2GI,AOML,USCG_HEALY,North
2020-11-01T01:59:57Z,1604195997,2020,2,0,306.0833,306.0833,50.761,-175.304,1016.4,8.74,-999.0,yes,yes,no,300534060317420,BD2GI,AOML,USCG_HEALY,North
2020-11-01T03:00:00Z,1604199600,2020,3,0,306.125,306.125,50.763,-175.317,1015.3,8.74,-999.0,yes,yes,no,300534060317420,BD2GI,AOML,USCG_HEALY,North
2020-11-01T04:00:02Z,1604203203,2020,4,0,306.1667,306.1667,50.767,-175.329,1014.7,8.74,-999.0,yes,yes,no,300534060317420,BD2GI,AOML,USCG_HEALY,North
2020-11-01T04:59:57Z,1604206797,2020,5,0,306.2083,306.2083,50.771,-175.338,1013.0,8.73,-999.0,yes,yes,no,300534060317420,BD2GI,AOML,USCG_HEALY,North
2020-11-01T06:00:00Z,1604210400,2020,6,0,306.25,306.25,50.778,-175.347,1012.6,8.73,-999.0,yes,yes,no,300534060317420,BD2GI,AOML,USCG_HEALY,North
2020-11-01T07:00:02Z,1604214003,2020,7,0,306.2917,306.2917,50.784,-175.354,1011.8,8.72,-999.0,yes,yes,no,300534060317420,BD2GI,AOML,USCG_HEALY,North
2020-11-01T07:59:57Z,1604217597,2020,8,0,306.3333,306.3333,50.793,-175.358,1011.6,8.72,-999.0,yes,yes,no,300534060317420,BD2GI,AOML,USCG_HEALY,North
2020-11-01T09:00:00Z,1604221200,2020,9,0,306.375,306.375,50.793,-175.358,1010.8,8.7,-999.0,yes,yes,no,300534060317420,BD2GI,AOML,USCG_HEALY,North
2020-11-01T10:00:02Z,1604224803,2020,10,0,306.4167,306.4167,50.804,-175.351,1010.5,8.71,-999.0,yes,yes,no,300534060317420,BD2GI,AOML,USCG_HEALY,North
2020-11-01T10:59:57Z,1604228397,2020,11,0,306.4583,306.4583,50.807,-175.346,1009.6,8.71,-999.0,yes,yes,no,300534060317420,BD2GI,AOML,USCG_HEALY,North
2020-11-01T12:00:00Z,1604232000,2020,12,0,306.5,306.5,50.808,-175.343,1009.2,8.7,-999.0,yes,yes,no,300534060317420,BD2GI,AOML,USCG_HEALY,North
2020-11-01T13:00:02Z,1604235603,2020,13,0,306.5417,306.5417,50.805,-175.346,1008.7,8.7,-999.0,yes,yes,no,300534060317420,BD2GI,AOML,USCG_HEALY,North
2020-11-01T13:59:57Z,1604239197,2020,14,0,306.5833,306.5833,50.801,-175.355,1008.0,8.7,-999.0,yes,yes,no,300534060317420,BD2GI,AOML,USCG_HEALY,North
2020-11-01T15:00:00Z,1604242800,2020,15,0,306.625,306.625,50.801,-175.355,1007.3,8.69,-999.0,yes,yes,no,300534060317420,BD2GI,AOML,USCG_HEALY,North
2020-11-01T16:00:02Z,1604246403,2020,16,0,306.6667,306.6667,50.797,-175.383,1006.9,8.68,-999.0,yes,yes,no,300534060317420,BD2GI,AOML,USCG_HEALY,North
2020-11-01T16:59:57Z,1604249997,2020,17,0,306.7083,306.7083,50.797,-175.401,1006.7,8.67,-999.0,yes,yes,no,300534060317420,BD2GI,AOML,USCG_HEALY,North
2020-11-01T18:00:00Z,1604253600,2020,18,0,306.75,306.75,50.801,-175.42,1006.7,8.65,-999.0,yes,yes,no,300534060317420,BD2GI,AOML,USCG_HEALY,North
2020-11-01T19:00:02Z,1604257203,2020,19,0,306.7917,306.7917,50.808,-175.437,1006.4,8.63,-999.0,yes,yes,no,300534060317420,BD2GI,AOML,USCG_HEALY,North
2020-11-01T19:59:57Z,1604260797,2020,20,0,306.8333,306.8333,50.815,-175.453,1007.0,8.62,-999.0,yes,yes,no,300534060317420,BD2GI,AOML,USCG_HEALY,North
2020-11-01T21:00:00Z,1604264400,2020,21,0,306.875,306.875,50.824,-175.467,1006.9,8.59,-999.0,yes,yes,no,300534060317420,BD2GI,AOML,USCG_HEALY,North
2020-11-01T22:00:02Z,1604268003,2020,22,0,306.9167,306.9167,50.831,-175.476,1007.0,8.6,-999.0,yes,yes,no,300534060317420,BD2GI,AOML,USCG_HEALY,North
2020-11-01T22:59:57Z,1604271597,2020,23,0,306.9583,306.9583,50.84,-175.484,1007.2,8.59,-999.0,yes,yes,no,300534060317420,BD2GI,AOML,USCG_HEALY,North
2020-11-02T00:00:00Z,1604275200,2020,0,0,307.0,307.0,50.846,-175.489,1007.1,8.57,-999.0,yes,yes,no,300534060317420,BD2GI,AOML,USCG_HEALY,North
2020-11-02T01:00:02Z,1604278803,2020,1,0,307.0417,307.0417,50.846,-175.489,1006.9,8.55,-999.0,yes,yes,no,300534060317420,BD2GI,AOML,USCG_HEALY,North
2020-11-02T01:59:57Z,1604282397,2020,2,0,307.0833,307.0833,50.846,-175.489,1006.9,8.55,-999.0,yes,yes,no,300534060317420,BD2GI,AOML,USCG_HEALY,North
2020-11-02T03:00:00Z,1604286000,2020,3,0,307.125,307.125,50.851,-175.491,1007.0,8.54,-999.0,yes,yes,no,300534060317420,BD2GI,AOML,USCG_HEALY,North
2020-11-02T04:00:02Z,1604289603,2020,4,0,307.1667,307.1667,50.846,-175.495,1007.3,8.52,-999.0,yes,yes,no,300534060317420,BD2GI,AOML,USCG_HEALY,North
2020-11-02T04:59:57Z,1604293197,2020,5,0,307.2083,307.2083,50.841,-175.507,1007.7,8.52,-999.0,yes,yes,no,300534060317420,BD2GI,AOML,USCG_HEALY,North
2020-11-02T06:00:00Z,1604296800,2020,6,0,307.25,307.25,50.836,-175.525,1008.4,8.52,-999.0,yes,yes,no,300534060317420,BD2GI,AOML,USCG_HEALY,North
2020-11-02T07:00:02Z,1604300403,2020,7,0,307.2917,307.2917,50.834,-175.536,1009.4,8.48,-999.0,yes,yes,no,300534060317420,BD2GI,AOML,USCG_HEALY,North
2020-11-02T07:59:57Z,1604303997,2020,8,0,307.3333,307.3333,50.834,-175.536,1009.9,8.49,-999.0,yes,yes,no,300534060317420,BD2GI,AOML,USCG_HEALY,North
2020-11-02T09:00:00Z,1604307600,2020,9,0,307.375,307.375,50.838,-175.581,1010.3,8.48,-999.0,yes,yes,no,300534060317420,BD2GI,AOML,USCG_HEALY,North
2020-11-02T10:00:02Z,1604311203,2020,10,0,307.4167,307.4167,50.843,-175.598,1011.1,8.47,-999.0,yes,yes,no,300534060317420,BD2GI,AOML,USCG_HEALY,North
2020-11-02T10:59:57Z,1604314797,2020,11,0,307.4583,307.4583,50.852,-175.615,1011.4,8.46,-999.0,yes,yes,no,300534060317420,BD2GI,AOML,USCG_HEALY,North
2020-11-02T12:00:00Z,1604318400,2020,12,0,307.5,307.5,50.852,-175.615,1012.1,8.47,-999.0,yes,yes,no,300534060317420,BD2GI,AOML,USCG_HEALY,North
2020-11-02T13:00:02Z,1604322003,2020,13,0,307.5417,307.5417,50.852,-175.615,1012.7,8.46,-999.0,yes,yes,no,300534060317420,BD2GI,AOML,USCG_HEALY,North
2020-11-02T13:59:57Z,1604325597,2020,14,0,307.5833,307.5833,50.852,-175.615,1013.3,8.46,-999.0,yes,yes,no,300534060317420,BD2GI,AOML,USCG_HEALY,North
2020-11-02T15:00:00Z,1604329200,2020,15,0,307.625,307.625,50.876,-175.635,1013.6,8.45,-999.0,yes,yes,no,300534060317420,BD2GI,AOML,USCG_HEALY,North
2020-11-02T16:00:02Z,1604332803,2020,16,0,307.6667,307.6667,50.874,-175.635,1014.2,8.45,-999.0,yes,yes,no,300534060317420,BD2GI,AOML,USCG_HEALY,North
2020-11-02T16:59:57Z,1604336397,2020,17,0,307.7083,307.7083,50.87,-175.638,1015.2,8.45,-999.0,yes,yes,no,300534060317420,BD2GI,AOML,USCG_HEALY,North
2020-11-02T18:00:00Z,1604340000,2020,18,0,307.75,307.75,50.865,-175.646,1016.1,8.45,-999.0,yes,yes,no,300534060317420,BD2GI,AOML,USCG_HEALY,North
2020-11-02T19:00:02Z,1604343603,2020,19,0,307.7917,307.7917,50.86,-175.654,1017.2,8.45,-999.0,yes,yes,no,300534060317420,BD2GI,AOML,USCG_HEALY,North
2020-11-02T19:59:57Z,1604347197,2020,20,0,307.8333,307.8333,50.854,-175.67,1018.3,8.45,-999.0,yes,yes,no,300534060317420,BD2GI,AOML,USCG_HEALY,North
2020-11-02T21:00:00Z,1604350800,2020,21,0,307.875,307.875,50.853,-175.685,1019.4,8.46,-999.0,yes,yes,no,300534060317420,BD2GI,AOML,USCG_HEALY,North
2020-11-02T22:00:02Z,1604354403,2020,22,0,307.9167,307.9167,50.852,-175.701,1019.9,8.46,-999.0,yes,yes,no,300534060317420,BD2GI,AOML,USCG_HEALY,North
2020-11-02T22:59:57Z,1604357997,2020,23,0,307.9583,307.9583,50.853,-175.708,1020.8,8.46,-999.0,yes,yes,no,300534060317420,BD2GI,AOML,USCG_HEALY,North
2020-11-03T00:00:00Z,1604361600,2020,0,0,308.0,308.0,50.854,-175.735,1021.2,8.46,-999.0,yes,yes,no,300534060317420,BD2GI,AOML,USCG_HEALY,North
2020-11-03T01:00:02Z,1604365203,2020,1,0,308.0417,308.0417,50.857,-175.747,1021.8,8.46,-999.0,yes,yes,no,300534060317420,BD2GI,AOML,USCG_HEALY,North
2020-11-03T01:59:57Z,1604368797,2020,2,0,308.0833,308.0833,50.86,-175.757,1022.3,8.45,-999.0,yes,yes,no,300534060317420,BD2GI,AOML,USCG_HEALY,North
2020-11-03T03:00:00Z,1604372400,2020,3,0,308.125,308.125,50.863,-175.765,1022.9,8.45,-999.0,yes,yes,no,300534060317420,BD2GI,AOML,USCG_HEALY,North
2020-11-03T04:00:02Z,1604376003,2020,4,0,308.1667,308.1667,50.864,-175.768,1023.8,8.46,-999.0,yes,yes,no,300534060317420,BD2GI,AOML,USCG_HEALY,North
2020-11-03T04:59:57Z,1604379597,2020,5,0,308.2083,308.2083,50.863,-175.77,1024.6,8.45,-999.0,yes,yes,no,300534060317420,BD2GI,AOML,USCG_HEALY,North
2020-11-03T06:00:00Z,1604383200,2020,6,0,308.25,308.25,50.862,-175.772,1025.6,8.45,-999.0,yes,yes,no,300534060317420,BD2GI,AOML,USCG_HEALY,North
2020-11-03T07:00:02Z,1604386803,2020,7,0,308.2917,308.2917,50.861,-175.776,1026.3,8.44,-999.0,yes,yes,no,300534060317420,BD2GI,AOML,USCG_HEALY,North
2020-11-03T07:59:57Z,1604390397,2020,8,0,308.3333,308.3333,50.859,-175.781,1027.2,8.45,-999.0,yes,yes,no,300534060317420,BD2GI,AOML,USCG_HEALY,North
2020-11-03T09:00:00Z,1604394000,2020,9,0,308.375,308.375,50.855,-175.782,1028.0,8.44,-999.0,yes,yes,no,300534060317420,BD2GI,AOML,USCG_HEALY,North
2020-11-03T10:00:02Z,1604397603,2020,10,0,308.4167,308.4167,50.851,-175.786,1028.6,8.45,-999.0,yes,yes,no,300534060317420,BD2GI,AOML,USCG_HEALY,North
2020-11-03T10:59:57Z,1604401197,2020,11,0,308.4583,308.4583,50.847,-175.794,1028.8,8.43,-999.0,yes,yes,no,300534060317420,BD2GI,AOML,USCG_HEALY,North
2020-11-03T12:00:00Z,1604404800,2020,12,0,308.5,308.5,50.847,-175.802,1029.1,8.42,-999.0,yes,yes,no,300534060317420,BD2GI,AOML,USCG_HEALY,North
2020-11-03T13:00:02Z,1604408403,2020,13,0,308.5417,308.5417,50.847,-175.808,1029.7,8.42,-999.0,yes,yes,no,300534060317420,BD2GI,AOML,USCG_HEALY,North
2020-11-03T13:59:57Z,1604411997,2020,14,0,308.5833,308.5833,50.848,-175.812,1030.3,8.44,-999.0,yes,yes,no,300534060317420,BD2GI,AOML,USCG_HEALY,North
2020-11-03T15:00:00Z,1604415600,2020,15,0,308.625,308.625,50.847,-175.815,1030.6,8.44,-999.0,yes,yes,no,300534060317420,BD2GI,AOML,USCG_HEALY,North
2020-11-03T16:00:02Z,1604419203,2020,16,0,308.6667,308.6667,50.844,-175.821,1031.1,8.42,-999.0,yes,yes,no,300534060317420,BD2GI,AOML,USCG_HEALY,North
2020-11-03T16:59:57Z,1604422797,2020,17,0,308.7083,308.7083,50.84,-175.83,1031.8,8.42,-999.0,yes,yes,no,300534060317420,BD2GI,AOML,USCG_HEALY,North
2020-11-03T18:00:00Z,1604426400,2020,18,0,308.75,308.75,50.84,-175.841,1032.3,8.43,-999.0,yes,yes,no,300534060317420,BD2GI,AOML,USCG_HEALY,North
2020-11-03T19:00:02Z,1604430003,2020,19,0,308.7917,308.7917,50.841,-175.85,1032.9,8.44,-999.0,yes,yes,no,300534060317420,BD2GI,AOML,USCG_HEALY,North
2020-11-03T19:59:57Z,1604433597,2020,20,0,308.8333,308.8333,50.842,-175.855,1034.0,8.44,-999.0,yes,yes,no,300534060317420,BD2GI,AOML,USCG_HEALY,North
2020-11-03T21:00:00Z,1604437200,2020,21,0,308.875,308.875,50.842,-175.856,1034.5,8.45,-999.0,yes,yes,no,300534060317420,BD2GI,AOML,USCG_HEALY,North
2020-11-03T22:00:02Z,1604440803,2020,22,0,308.9167,308.9167,50.842,-175.857,1034.1,8.47,-999.0,yes,yes,no,300534060317420,BD2GI,AOML,USCG_HEALY,North
2020-11-03T22:59:57Z,1604444397,2020,23,0,308.9583,308.9583,50.84,-175.855,1033.8,8.47,-999.0,yes,yes,no,300534060317420,BD2GI,AOML,USCG_HEALY,North
2020-11-04T00:00:00Z,1604448000,2020,0,0,309.0,309.0,50.836,-175.857,1034.2,8.47,-999.0,yes,yes,no,300534060317420,BD2GI,AOML,USCG_HEALY,North
2020-11-04T01:00:02Z,1604451603,2020,1,0,309.0417,309.0417,50.832,-175.859,1034.7,8.48,-999.0,yes,yes,no,300534060317420,BD2GI,AOML,USCG_HEALY,North
2020-11-04T01:59:57Z,1604455197,2020,2,0,309.0833,309.0833,50.831,-175.866,1034.9,8.46,-999.0,yes,yes,no,300534060317420,BD2GI,AOML,USCG_HEALY,North
2020-11-04T03:00:00Z,1604458800,2020,3,0,309.125,309.125,50.828,-175.869,1035.0,8.45,-999.0,yes,yes,no,300534060317420,BD2GI,AOML,USCG_HEALY,North
2020-11-04T04:00:02Z,1604462403,2020,4,0,309.1667,309.1667,50.825,-175.871,1035.3,8.41,-999.0,yes,yes,no,300534060317420,BD2GI,AOML,USCG_HEALY,North
2020-11-04T04:59:57Z,1604465997,2020,5,0,309.2083,309.2083,50.821,-175.877,1035.6,8.41,-999.0,yes,yes,no,300534060317420,BD2GI,AOML,USCG_HEALY,North
2020-11-04T06:00:00Z,1604469600,2020,6,0,309.25,309.25,50.816,-175.884,1036.2,8.39,-999.0,yes,yes,no,300534060317420,BD2GI,AOML,USCG_HEALY,North
2020-11-04T07:00:02Z,1604473203,2020,7,0,309.2917,309.2917,50.815,-175.891,1036.4,8.38,-999.0,yes,yes,no,300534060317420,BD2GI,AOML,USCG_HEALY,North
2020-11-04T07:59:57Z,1604476797,2020,8,0,309.3333,309.3333,50.817,-175.899,1036.6,8.37,-999.0,yes,yes,no,300534060317420,BD2GI,AOML,USCG_HEALY,North
2020-11-04T09:00:00Z,1604480400,2020,9,0,309.375,309.375,50.819,-175.904,1035.8,8.36,-999.0,yes,yes,no,300534060317420,BD2GI,AOML,USCG_HEALY,North
2020-11-04T10:00:02Z,1604484003,2020,10,0,309.4167,309.4167,50.82,-175.906,1035.8,8.34,-999.0,yes,yes,no,300534060317420,BD2GI,AOML,USCG_HEALY,North
2020-11-04T10:59:57Z,1604487597,2020,11,0,309.4583,309.4583,50.823,-175.908,1035.5,8.33,-999.0,yes,yes,no,300534060317420,BD2GI,AOML,USCG_HEALY,North
2020-11-04T12:00:00Z,1604491200,2020,12,0,309.5,309.5,50.829,-175.905,1035.2,8.32,-999.0,yes,yes,no,300534060317420,BD2GI,AOML,USCG_HEALY,North
2020-11-04T13:00:02Z,1604494803,2020,13,0,309.5417,309.5417,50.833,-175.898,1034.7,8.31,-999.0,yes,yes,no,300534060317420,BD2GI,AOML,USCG_HEALY,North
2020-11-04T13:59:57Z,1604498397,2020,14,0,309.5833,309.5833,50.837,-175.892,1033.4,8.28,-999.0,yes,yes,no,300534060317420,BD2GI,AOML,USCG_HEALY,North
2020-11-04T15:00:00Z,1604502000,2020,15,0,309.625,309.625,50.839,-175.887,1032.4,8.27,-999.0,yes,yes,no,300534060317420,BD2GI,AOML,USCG_HEALY,North
2020-11-04T16:00:02Z,1604505603,2020,16,0,309.6667,309.6667,50.839,-175.887,1031.8,8.25,-999.0,yes,yes,no,300534060317420,BD2GI,AOML,USCG_HEALY,North
2020-11-04T16:59:57Z,1604509197,2020,17,0,309.7083,309.7083,50.838,-175.876,1030.9,8.24,-999.0,yes,yes,no,300534060317420,BD2GI,AOML,USCG_HEALY,North
2020-11-04T18:00:00Z,1604512800,2020,18,0,309.75,309.75,50.835,-175.875,1030.5,8.25,-999.0,yes,yes,no,300534060317420,BD2GI,AOML,USCG_HEALY,North
2020-11-04T19:00:02Z,1604516403,2020,19,0,309.7917,309.7917,50.832,-175.88,1029.5,8.25,-999.0,yes,yes,no,300534060317420,BD2GI,AOML,USCG_HEALY,North
2020-11-04T19:59:57Z,1604519997,2020,20,0,309.8333,309.8333,50.83,-175.887,1029.4,8.24,-999.0,yes,yes,no,300534060317420,BD2GI,AOML,USCG_HEALY,North
2020-11-04T21:00:00Z,1604523600,2020,21,0,309.875,309.875,50.831,-175.893,1027.4,8.25,-999.0,yes,yes,no,300534060317420,BD2GI,AOML,USCG_HEALY,North
2020-11-04T22:00:02Z,1604527203,2020,22,0,309.9167,309.9167,50.836,-175.899,1026.6,8.25,-999.0,yes,yes,no,300534060317420,BD2GI,AOML,USCG_HEALY,North
2020-11-04T22:59:57Z,1604530797,2020,23,0,309.9583,309.9583,50.841,-175.902,1025.0,8.27,-999.0,yes,yes,no,300534060317420,BD2GI,AOML,USCG_HEALY,North
2020-11-05T00:00:00Z,1604534400,2020,0,0,310.0,310.0,50.847,-175.904,1023.0,8.26,-999.0,yes,yes,no,300534060317420,BD2GI,AOML,USCG_HEALY,North
2020-11-05T01:00:02Z,1604538003,2020,1,0,310.0417,310.0417,50.854,-175.899,1021.4,8.27,-999.0,yes,yes,no,300534060317420,BD2GI,AOML,USCG_HEALY,North
2020-11-05T01:59:57Z,1604541597,2020,2,0,310.0833,310.0833,50.854,-175.899,1019.8,8.27,-999.0,yes,yes,no,300534060317420,BD2GI,AOML,USCG_HEALY,North
2020-11-05T03:00:00Z,1604545200,2020,3,0,310.125,310.125,50.854,-175.899,1019.1,8.28,-999.0,yes,yes,no,300534060317420,BD2GI,AOML,USCG_HEALY,North
2020-11-05T04:00:02Z,1604548803,2020,4,0,310.1667,310.1667,50.854,-175.899,1016.4,8.27,-999.0,yes,yes,no,300534060317420,BD2GI,AOML,USCG_HEALY,North
2020-11-05T04:59:57Z,1604552397,2020,5,0,310.2083,310.2083,50.872,-175.884,1014.4,8.26,-999.0,yes,yes,no,300534060317420,BD2GI,AOML,USCG_HEALY,North
2020-11-05T06:00:00Z,1604556000,2020,6,0,310.25,310.25,50.872,-175.884,1012.7,8.27,-999.0,yes,yes,no,300534060317420,BD2GI,AOML,USCG_HEALY,North
2020-11-05T07:00:02Z,1604559603,2020,7,0,310.2917,310.2917,50.882,-175.864,1011.8,8.27,-999.0,yes,yes,no,300534060317420,BD2GI,AOML,USCG_HEALY,North
2020-11-05T07:59:57Z,1604563197,2020,8,0,310.3333,310.3333,50.882,-175.864,1010.8,8.25,-999.0,yes,yes,no,300534060317420,BD2GI,AOML,USCG_HEALY,North
2020-11-05T09:00:00Z,1604566800,2020,9,0,310.375,310.375,50.882,-175.864,1010.1,8.24,-999.0,yes,yes,no,300534060317420,BD2GI,AOML,USCG_HEALY,North
2020-11-05T10:00:02Z,1604570403,2020,10,0,310.4167,310.4167,50.882,-175.864,1010.1,8.23,-999.0,yes,yes,no,300534060317420,BD2GI,AOML,USCG_HEALY,North
2020-11-05T10:59:57Z,1604573997,2020,11,0,310.4583,310.4583,50.882,-175.864,1009.9,8.23,-999.0,yes,yes,no,300534060317420,BD2GI,AOML,USCG_HEALY,North
2020-11-05T12:00:00Z,1604577600,2020,12,0,310.5,310.5,50.882,-175.864,1010.3,8.24,-999.0,yes,yes,no,300534060317420,BD2GI,AOML,USCG_HEALY,North
2020-11-05T13:00:02Z,1604581203,2020,13,0,310.5417,310.5417,50.886,-175.798,1010.8,8.23,-999.0,yes,yes,no,300534060317420,BD2GI,AOML,USCG_HEALY,North
2020-11-05T13:59:57Z,1604584797,2020,14,0,310.5833,310.5833,50.881,-175.792,1012.1,8.24,-999.0,yes,yes,no,300534060317420,BD2GI,AOML,USCG_HEALY,North
2020-11-05T15:00:00Z,1604588400,2020,15,0,310.625,310.625,50.881,-175.792,1013.0,8.22,-999.0,yes,yes,no,300534060317420,BD2GI,AOML,USCG_HEALY,North
2020-11-05T16:00:02Z,1604592003,2020,16,0,310.6667,310.6667,50.865,-175.796,1013.5,8.22,-999.0,yes,yes,no,300534060317420,BD2GI,AOML,USCG_HEALY,North
2020-11-05T16:59:57Z,1604595597,2020,17,0,310.7083,310.7083,50.859,-175.812,1014.5,8.23,-999.0,yes,yes,no,300534060317420,BD2GI,AOML,USCG_HEALY,North
2020-11-05T18:00:00Z,1604599200,2020,18,0,310.75,310.75,50.859,-175.812,1014.6,8.21,-999.0,yes,yes,no,300534060317420,BD2GI,AOML,USCG_HEALY,North
2020-11-05T19:00:02Z,1604602803,2020,19,0,310.7917,310.7917,50.858,-175.848,1015.6,8.21,-999.0,yes,yes,no,300534060317420,BD2GI,AOML,USCG_HEALY,North
2020-11-05T19:59:57Z,1604606397,2020,20,0,310.8333,310.8333,50.861,-175.863,1016.7,8.22,-999.0,yes,yes,no,300534060317420,BD2GI,AOML,USCG_HEALY,North
2020-11-05T21:00:00Z,1604610000,2020,21,0,310.875,310.875,50.865,-175.878,1017.2,8.23,-999.0,yes,yes,no,300534060317420,BD2GI,AOML,USCG_HEALY,North
2020-11-05T22:00:02Z,1604613603,2020,22,0,310.9167,310.9167,50.872,-175.888,1017.4,8.23,-999.0,yes,yes,no,300534060317420,BD2GI,AOML,USCG_HEALY,North
2020-11-05T22:59:57Z,1604617197,2020,23,0,310.9583,310.9583,50.881,-175.892,1017.9,8.25,-999.0,yes,yes,no,300534060317420,BD2GI,AOML,USCG_HEALY,North
2020-11-06T00:00:00Z,1604620800,2020,0,0,311.0,311.0,50.888,-175.891,1017.6,8.25,-999.0,yes,yes,no,300534060317420,BD2GI,AOML,USCG_HEALY,North
2020-11-06T01:00:02Z,1604624403,2020,1,0,311.0417,311.0417,50.893,-175.885,1017.8,8.27,-999.0,yes,yes,no,300534060317420,BD2GI,AOML,USCG_HEALY,North
2020-11-06T01:59:57Z,1604627997,2020,2,0,311.0833,311.0833,50.896,-175.88,1018.2,8.26,-999.0,yes,yes,no,300534060317420,BD2GI,AOML,USCG_HEALY,North
2020-11-06T03:00:00Z,1604631600,2020,3,0,311.125,311.125,50.896,-175.874,1018.0,8.25,-999.0,yes,yes,no,300534060317420,BD2GI,AOML,USCG_HEALY,North
2020-11-06T04:00:02Z,1604635203,2020,4,0,311.1667,311.1667,50.892,-175.871,1018.2,8.25,-999.0,yes,yes,no,300534060317420,BD2GI,AOML,USCG_HEALY,North
2020-11-06T04:59:57Z,1604638797,2020,5,0,311.2083,311.2083,50.886,-175.87,1018.7,8.25,-999.0,yes,yes,no,300534060317420,BD2GI,AOML,USCG_HEALY,North
2020-11-06T06:00:00Z,1604642400,2020,6,0,311.25,311.25,50.877,-175.873,1019.2,8.25,-999.0,yes,yes,no,300534060317420,BD2GI,AOML,USCG_HEALY,North
2020-11-06T07:00:02Z,1604646003,2020,7,0,311.2917,311.2917,50.87,-175.882,1019.6,8.25,-999.0,yes,yes,no,300534060317420,BD2GI,AOML,USCG_HEALY,North
2020-11-06T07:59:57Z,1604649597,2020,8,0,311.3333,311.3333,50.865,-175.895,1019.6,8.25,-999.0,yes,yes,no,300534060317420,BD2GI,AOML,USCG_HEALY,North
2020-11-06T09:00:00Z,1604653200,2020,9,0,311.375,311.375,50.862,-175.906,1019.5,8.25,-999.0,yes,yes,no,300534060317420,BD2GI,AOML,USCG_HEALY,North
2020-11-06T10:00:02Z,1604656803,2020,10,0,311.4167,311.4167,50.861,-175.922,1019.7,8.24,-999.0,yes,yes,no,300534060317420,BD2GI,AOML,USCG_HEALY,North
2020-11-06T10:59:57Z,1604660397,2020,11,0,311.4583,311.4583,50.861,-175.937,1019.4,8.24,-999.0,yes,yes,no,300534060317420,BD2GI,AOML,USCG_HEALY,North
2020-11-06T12:00:00Z,1604664000,2020,12,0,311.5,311.5,50.865,-175.951,1019.3,8.23,-999.0,yes,yes,no,300534060317420,BD2GI,AOML,USCG_HEALY,North
2020-11-06T13:00:02Z,1604667603,2020,13,0,311.5417,311.5417,50.872,-175.962,1019.4,8.24,-999.0,yes,yes,no,300534060317420,BD2GI,AOML,USCG_HEALY,North
2020-11-06T13:59:57Z,1604671197,2020,14,0,311.5833,311.5833,50.882,-175.97,1019.2,8.22,-999.0,yes,yes,no,300534060317420,BD2GI,AOML,USCG_HEALY,North